Presure
112 133 123 132 132 145 93 113 90 118 102 105 111 128 107 95 129 103 97 107 113 109 100 110 99 94 109 95 97 96 96 95 96 96 90 90 90 87 90 111 95 125 88
127 112 118 123 136 146 161 97 97 94 102 107 124 97 117 108 106 103 95 112 101 99 93 89 98 94 100 95 96 92 91 92 89 92 92 95 97 92 85 87 87 85 91
149 134 118 118 125 136 145 162 123 115 103 104 121 122 106 98 102 103 109 104 101 100 102 102 101 98 92 89 98 104 100 96 93 90 89 89 89 88 87 87 91 83 89
146 150 177 133 121 128 137 151 159 142 143 109 107 139 103 96 103 100 105 97 96 93 101 94 94 99 95 94 91 94 96 94 92 93 97 94 94 93 88 89 90 87 86
136 142 145 145 123 127 133 140 154 160 135 128 103 112 128 103 99 96 97 97 94 102 94 94 89 95 92 90 91 93 91 107 98 99 92 90 90 92 94 94 91 95 84
143 135 146 147 129 126 128 134 140 149 146 105 118 107 131 149 102 139 105 95 102 97 98 90 92 98 92 102 107 92 86 94 172 95 96 99 103 158 97 174 76 180 153
137 140 140 144 135 127 126 130 167 142 142 152 159 112 105 109 116 101 96 96 95 96 97 96 94 95 95 99 103 100 105 152 93 109 95 96 101 103 94 100 104 143 154
142 142 138 142 141 169 138 124 159 151 137 132 139 147 96 102 110 117 109 101 101 103 96 94 97 88 97 96 92 101 107 124 161 130 163 101 99 95 95 102 99 172 149
166 157 144 144 148 141 145 155 145 135 134 133 144 101 145 106 106 108 137 121 95 91 100 98 96 101 95 100 93 91 95 94 110 102 154 111 97 98 92 95 82 112 138
142 143 151 146 146 148 137 144 147 122 129 154 137 107 142 149 95 111 132 134 94 140 104 132 105 151 101 100 108 102 148 98 101 168 171 116 103 104 103 77 213 204 205
142 139 145 149 151 144 144 149 156 148 145 139 147 142 124 108 106 148 139 143 108 141 130 128 142 139 134 142 105 96 110 103 123 155 106 175 177 180 95 206 207 212 82
141 135 141 164 170 145 143 138 145 143 147 145 146 152 136 112 151 137 115 120 129 117 123 154 160 131 99 134 109 140 129 111 148 176 92 138 194 217 126 92 214 207 89
200 143 136 141 175 185 150 149 146 146 143 145 149 145 132 138 142 147 138 129 149 142 125 156 98 145 117 133 199 180 85 163 106 201 87 173 216 212 163 179 188 95 189
139 141 243 143 149 145 150 149 127 151 145 144 149 157 148 147 151 148 143 97 150 153 105 146 140 151 154 191 134 140 67 93 213 200 232 212 204 210 83 202 84 156 100
197 193 151 239 231 139 146 152 143 149 151 161 148 150 158 144 146 147 149 148 147 152 151 157 167 144 156 207 190 196 76 193 142 212 208 209 215 141 199 99 93 190 185
194 194 199 203 176 142 145 144 142 139 142 144 145 148 149 146 149 149 146 148 146 150 151 86 154 194 201 204 197 214 160 211 210 192 168 202 95 121 95 90 189 191 191
185 190 154 182 154 156 240 235 143 144 140 145 150 145 149 152 146 146 146 150 151 152 177 215 216 199 202 211 86 213 203 88 103 83 208 175 97 105 192 174 186 192 165
154 171 202 186 152 148 149 146 185 196 153 153 151 146 146 146 144 144 141 150 158 220 220 233 211 224 221 219 178 213 216 83 204 189 183 90 194 99 188 187 183 179 174
169 174 163 207 204 198 204 185 217 181 199 197 167 172 172 153 153 169 170 190 211 189 182 218 208 201 189 146 135 91 116 204 144 136 96 191 145 182 186 186 188 169 176
160 109 173 126 191 176 194 187 203 205 200 198 198 196 196 195 196 201 203 199 201 192 194 187 185 107 83 181 183 181 118 183 88 114 136 177 178 174 179 190 178 176 191
83 147 173 193 200 188 193 192 184 181 185 200 201 199 198 193 205 110 182 196 197 192 183 179 174 83 116 118 81 87 174 94 180 100 136 178 178 182 180 179 162 171 189
158 101 167 91 155 101 204 184 188 197 192 189 189 187 192 194 190 204 204 195 168 179 181 156 80 163 90 104 91 151 175 147 176 180 176 175 176 175 176 149 168 176 188
133 180 134 93 96 94 181 115 99 192 208 147 156 196 194 203 196 193 154 107 175 179 148 172 168 86 108 94 140 146 122 177 175 176 177 175 177 181 183 202 182 180 201
207 158 93 178 91 139 189 168 97 200 90 105 123 98 81 89 185 77 85 83 156 172 153 137 99 166 107 139 193 177 194 195 176 176 180 191 186 184 196 155 192 212 198
213 190 198 168 140 211 95 180 200 100 177 90 214 195 163 189 116 103 173 158 99 107 199 207 193 180 179 180 207 178 185 185 205 194 189 184 191 183 193 169 165 212 199
188 78 191 195 82 123 149 132 133 89 187 193 149 137 206 188 183 162 196 201 201 186 172 216 203 174 173 173 176 176 184 182 182 178 188 188 181 130 159 191 182 203 195
Wind_Speed
29 30 28 27 27 27 19 21 14 21 14 16 17 20 17 12 17 15 13 7 8 5 2 1 1 4 3 7 6 6 5 6 5 4 2 2 1 2 2 11 6 25 6
37 30 30 30 29 29 31 22 20 17 18 17 24 13 18 17 16 16 10 7 7 6 2 2 4 3 2 6 5 7 8 7 7 9 9 10 11 8 4 6 5 7 10
38 37 34 32 32 31 30 32 28 24 21 19 23 23 18 14 15 14 12 9 6 6 6 7 8 8 5 5 8 9 8 9 11 11 12 12 11 10 9 12 15 10 15
39 39 43 37 34 33 33 33 34 32 32 22 19 28 19 15 17 14 14 9 9 7 10 6 7 11 9 10 10 12 14 13 11 13 15 16 16 16 16 16 18 18 18
44 43 43 40 35 35 34 34 36 37 32 28 20 22 27 20 17 13 13 12 11 15 10 10 7 12 12 12 14 15 14 21 23 25 16 14 17 17 18 19 18 24 17
47 44 45 43 39 38 36 36 36 37 36 24 29 23 30 34 20 33 21 15 19 17 17 12 13 18 15 19 21 18 11 22 38 24 25 30 29 39 24 45 13 49 46
48 48 46 44 43 42 40 37 42 37 35 36 35 26 20 25 25 22 20 19 18 18 19 21 19 21 19 23 23 25 28 37 23 30 25 28 33 22 24 33 37 45 48
53 51 49 47 47 47 43 38 42 40 36 33 33 36 21 24 26 28 27 25 24 27 23 22 25 13 24 21 16 25 29 37 44 37 46 35 33 24 26 37 33 55 49
56 55 51 49 49 47 46 45 43 39 37 38 39 28 38 25 26 28 38 32 22 18 27 28 26 31 24 28 21 22 25 22 25 33 45 36 30 33 27 27 22 36 48
53 52 54 51 51 50 46 47 46 37 37 41 40 31 41 42 23 29 39 39 22 38 32 37 34 43 32 29 31 32 45 31 35 53 53 42 39 41 42 24 54 58 59
55 52 53 53 51 51 50 49 47 44 44 44 44 43 39 31 29 47 43 43 32 42 39 37 41 42 42 44 30 32 37 39 42 47 35 58 59 57 29 49 55 54 39
60 55 55 57 56 53 51 47 48 47 48 48 47 47 46 33 49 44 33 36 39 35 38 48 48 40 31 46 38 43 42 26 50 51 26 43 56 51 36 34 52 53 46
40 60 54 55 58 60 54 51 51 52 51 50 50 49 44 48 49 51 44 40 52 48 42 51 33 50 40 47 49 55 13 52 24 51 29 49 50 50 45 47 52 46 53
59 57 51 56 55 54 55 53 42 54 53 51 50 51 50 51 51 54 52 29 54 55 31 52 49 55 55 46 46 46 16 24 46 51 48 49 51 50 39 52 44 54 58
50 50 58 49 59 52 55 55 52 53 54 53 52 51 50 51 53 55 56 55 54 56 57 58 54 52 57 46 51 50 16 52 43 48 47 49 49 41 51 51 55 54 55
49 54 50 47 56 57 58 55 53 51 52 53 53 54 53 53 54 56 56 57 56 57 59 15 59 48 48 47 48 45 39 47 47 46 44 47 50 52 53 53 53 54 53
51 53 60 58 62 61 52 57 56 56 53 54 56 56 56 55 57 58 58 58 59 60 56 46 46 46 47 45 24 43 46 28 43 39 45 47 56 57 51 54 53 56 43
58 48 48 56 61 61 61 59 58 57 57 56 57 59 58 59 60 58 51 52 60 47 46 42 41 42 41 41 45 44 49 36 42 45 46 52 46 59 53 54 54 51 50
61 60 59 39 41 39 41 55 49 56 56 57 58 58 56 60 61 57 56 52 46 50 53 40 42 43 47 37 32 44 41 42 47 48 59 46 53 52 55 56 57 50 53
63 31 59 36 37 43 46 55 47 52 56 56 57 55 54 54 51 51 51 50 48 50 47 48 48 38 34 48 48 49 47 45 45 57 57 53 55 52 54 58 53 56 60
18 55 62 58 52 55 51 51 57 60 58 55 57 56 55 53 52 40 44 50 47 48 49 50 51 35 39 50 33 44 52 50 52 59 45 54 56 56 57 58 48 54 63
55 31 55 25 37 26 50 55 54 58 60 58 57 57 57 54 53 51 49 50 42 49 51 50 31 55 48 36 51 50 54 57 56 55 56 57 56 56 57 53 51 57 62
45 51 49 27 30 27 48 34 35 56 61 44 49 63 58 58 54 52 44 34 47 52 50 55 56 42 53 53 57 50 58 56 57 57 59 58 57 59 60 63 57 59 62
49 55 31 70 28 50 62 55 32 56 29 37 44 36 25 26 51 22 34 34 50 54 54 55 50 55 57 58 56 54 56 56 60 61 62 61 61 61 63 49 63 64 62
60 81 69 64 49 62 28 62 61 31 54 36 68 65 50 57 43 47 52 54 52 55 59 61 56 58 59 58 58 60 60 60 59 59 64 64 64 63 64 53 53 66 61
86 16 81 86 19 43 53 39 39 35 62 63 52 49 65 61 57 54 60 63 62 59 58 61 61 64 64 64 63 63 64 64 64 65 66 66 64 50 49 68 64 66 64
Wind_Direction
231 235 231 235 235 235 237 235 241 224 238 231 230 235 218 242 242 214 228 219 252 189 174 225 300 350 27 13 9 8 9 7 356 348 151 225 254 306 293 291 262 262 314
238 230 232 234 237 236 235 237 238 242 239 231 235 230 232 217 214 217 247 222 209 223 276 356 255 308 321 339 318 338 343 338 349 331 331 318 316 323 330 344 345 343 317
238 238 234 236 237 239 238 238 238 237 235 232 236 235 227 237 226 224 220 235 222 237 245 254 259 262 295 312 289 289 273 287 304 323 321 320 318 316 319 322 320 317 311
238 238 247 237 236 239 241 241 241 242 244 239 232 246 233 245 232 238 218 254 264 285 256 278 286 278 293 302 325 314 307 307 305 297 288 294 291 291 305 306 301 310 318
236 237 237 236 238 241 242 243 242 242 243 243 235 242 249 237 244 253 260 258 267 239 278 274 313 285 303 311 312 304 315 292 294 296 308 306 305 305 302 300 303 295 305
239 241 238 237 238 239 241 243 244 243 244 234 244 239 254 257 243 265 235 263 244 258 254 289 288 269 286 279 276 299 309 296 289 296 298 294 288 289 300 286 304 287 286
240 240 240 240 240 240 238 243 249 246 248 250 254 243 251 244 250 245 259 259 266 263 260 263 276 271 277 274 269 275 278 287 293 287 293 292 286 296 297 292 290 290 294
239 238 238 239 240 246 242 239 246 248 248 248 250 255 240 238 247 252 251 250 254 255 264 270 267 283 278 279 285 280 281 302 293 289 289 284 288 295 299 291 295 289 290
241 237 238 239 239 242 244 243 244 246 249 251 254 234 260 237 240 245 268 261 256 268 261 262 269 267 276 275 285 288 290 288 294 291 300 295 298 293 298 302 297 291 290
240 240 237 239 239 239 246 245 247 242 249 252 253 238 260 264 242 249 268 272 259 281 262 280 262 289 271 275 272 275 293 283 282 292 290 290 289 286 290 301 293 292 291
240 242 240 239 243 241 242 244 242 248 250 253 255 257 252 248 244 269 269 271 253 282 280 277 284 290 290 292 272 282 285 281 286 291 300 293 293 294 296 296 297 296 294
234 236 238 239 238 241 243 247 248 250 250 252 254 255 258 249 265 265 255 261 268 265 270 284 287 278 277 289 278 299 294 301 290 297 293 296 297 300 296 298 298 297 292
245 233 236 236 240 247 240 242 246 248 249 251 252 256 257 263 267 270 266 264 279 280 271 285 274 287 283 286 293 290 286 291 305 295 298 296 300 299 301 301 298 295 301
236 235 244 239 240 241 241 242 237 246 250 253 254 254 259 264 265 269 273 261 278 281 273 286 286 287 288 288 292 291 288 285 300 296 301 301 298 301 304 300 295 300 293
242 239 237 248 245 243 244 242 245 246 248 253 256 256 256 263 266 269 271 275 278 279 282 283 284 286 289 289 289 289 289 292 296 300 299 300 300 303 301 300 298 308 308
243 243 240 243 244 243 243 245 248 251 253 255 258 259 259 262 263 266 271 273 277 279 281 268 285 287 289 290 289 294 291 298 299 300 301 300 303 299 301 297 307 310 314
244 249 239 246 239 241 253 251 247 247 251 254 255 259 260 260 264 267 270 272 275 278 280 282 283 286 287 290 278 294 296 298 297 306 299 303 300 303 302 306 310 312 308
240 241 240 244 239 240 244 245 248 253 248 250 254 256 260 262 264 267 273 276 274 280 282 283 283 285 286 291 290 296 296 305 298 299 299 301 301 303 305 309 312 314 313
241 245 241 243 245 249 250 248 255 252 258 259 257 259 261 260 264 269 271 276 277 279 281 284 284 287 288 293 299 292 300 300 300 300 299 300 301 306 309 311 313 311 317
239 236 245 237 253 244 246 249 255 257 257 258 261 263 264 267 269 272 273 274 277 279 280 282 284 291 300 292 295 295 297 296 299 299 297 302 304 309 309 310 314 316 319
221 246 247 243 246 246 245 248 250 249 252 258 261 261 263 265 269 264 269 273 275 277 279 281 284 301 296 290 304 303 295 300 296 298 302 300 303 308 309 309 310 314 319
237 239 245 239 239 243 240 248 249 251 255 257 259 261 264 266 268 269 268 272 276 277 279 283 300 287 289 296 296 294 293 295 295 296 298 300 306 306 309 301 313 315 319
245 251 250 251 253 252 245 249 250 254 254 253 258 261 264 265 267 269 273 272 276 276 277 280 283 294 291 291 289 293 294 290 292 294 295 300 303 304 307 312 313 315 320
217 241 245 260 257 244 251 245 248 255 254 254 258 257 268 275 267 291 280 288 276 276 276 278 286 286 288 288 291 293 293 295 293 294 296 299 302 305 308 305 314 320 319
200 236 236 238 254 245 247 259 252 262 262 264 252 259 264 265 271 267 271 272 272 272 280 281 282 281 283 285 291 287 290 291 297 298 298 301 302 305 308 310 312 320 319
243 236 243 243 239 247 250 249 260 256 264 262 266 265 259 264 268 267 273 273 273 276 280 282 282 280 283 285 286 288 288 289 292 295 297 299 304 293 303 310 312 316 317